Flag for Germany Weather past 2 weeks in Tönisvorst, North Rhine-Westphalia, Germany

Now
54 °F

Fog.


Feels Like: 51 °F
Forecast: 42 / 62 °F
Wind: 8 mph from West

Location: Monchengladbach Airport

Current Time: Sep 22, 2014 at 8:29:02 AM

Latest Report: Sep 22, 2014 at 7:50 AM


Visibility: 3 mi

Pressure: 30.09 "Hg

Humidity: 82%

Dew point: 48 °F

Location of TönisvorstLocation

Historic Weather in Tönisvorst — Graph

°F

Tönisvorst temperature yesterday

Maximum temperature yesterday: 66 °F (at 3:20 PM)
Minimum temperature yesterday: 57 °F (at 8:20 PM)
Average temperature yesterday: 62 °F

Past Weeks' High & Low Weather Summary

 TemperatureHumidityPressure
High77 °F (Sep 17, 3:20 PM)100% (Sep 7, 7:50 AM)30.24 "Hg (Sep 7, 7:50 AM)
Low48 °F (Sep 12, 7:50 AM)47% (Sep 17, 5:50 PM)29.80 "Hg (Sep 18, 7:50 PM)
Average65 °F76%30.03 "Hg
* Reported Sep 6 8:20 PM — Sep 21 8:20 PM, Tönisvorst, Weather by CustomWeather, © 2014

Note: Actual official high and low records may vary slightly from our data, if they occured in-between our weather recording intervals... More about our weather records

Advertising

Tönisvorst weather history for previous 24 hours

 ConditionsComfort  
Time TempWeatherWind HumidityBarometerVisibility
8:20 PM
Sep 21
57 °FClear.8 mph77%30.09 "Hg10 mi
7:50 PM59 °FClear.13 mph72%30.09 "Hg10 mi
7:20 PM61 °FClear.13 mph68%30.07 "Hg10 mi
6:50 PM61 °FClear.14 mph68%30.07 "Hg10 mi
6:20 PM61 °FClear.13 mph63%30.07 "Hg10 mi
5:50 PM63 °FClear.15 mph64%30.04 "Hg10 mi
5:20 PM64 °FPassing clouds.14 mph56%30.04 "HgN/A
4:20 PM64 °FPassing clouds.14 mph60%30.04 "HgN/A
3:50 PM66 °FPassing clouds.13 mph52%30.04 "HgN/A
3:20 PM66 °FPassing clouds.12 mph60%30.04 "HgN/A
2:50 PM63 °FPassing clouds.13 mph73%30.04 "HgN/A
2:20 PM61 °FCool.10 mph77%30.04 "HgN/A
1:50 PM64 °FPassing clouds.8 mph73%30.04 "HgN/A
1:20 PM63 °FPassing clouds.10 mph77%30.04 "HgN/A
12:50 PM63 °FPassing clouds.12 mph77%30.04 "HgN/A
12:20 PM63 °FPassing clouds.9 mph77%30.04 "HgN/A
11:20 AM61 °FLight rain. Fog.9 mph94%30.01 "Hg4 mi
10:50 AM61 °FLight rain. Partly sunny.9 mph94%30.01 "Hg4 mi
10:20 AM61 °FLight rain. Partly sunny.10 mph94%30.01 "Hg4 mi
9:50 AM63 °FLight rain. Fog.10 mph88%29.98 "Hg2 mi
9:20 AM61 °FLight rain. Fog.7 mph100%29.98 "Hg1 mi
8:50 AM61 °FLight rain. Fog.6 mph100%29.98 "Hg1 mi
8:20 AM61 °FFog.7 mph100%29.98 "Hg1 mi
Weather by CustomWeather, © 2014

See weather overviewHow to use our weather pages